DL3MEB-6 Weather Reports


time (UTC)temp
C
wind
direction
speed
KPH
gust
KPH
rain 1hr
cm
rain 24hr
cm
rain mn
cm
humidity
%
barometer
mb
20260506111920 19 79 1.6 3.2 0.00 0.00 0.00 51 1004.1
20260506110418 19 352 9.7 9.7 0.00 0.00 0.00 50 1004.1
20260506104913 18 4 6.4 8.0 0.00 0.00 0.00 49 1004.6
20260506103401 18 0 1.6 8.0 0.00 0.00 0.00 55 1004.8
20260506101857 18 356 3.2 6.4 0.00 0.00 0.00 54 1004.8
20260506100358 18 0 9.7 9.7 0.00 0.00 0.00 55 1005.1
20260506094851 18 1 1.6 1.6 0.00 0.00 0.00 58 1004.9
20260506093340 17 59 6.4 6.4 0.00 0.00 0.00 58 1005.0
20260506091834 17 20 3.2 3.2 0.00 0.00 0.00 58 1005.0
20260506090325 17 16 6.4 6.4 0.00 0.00 0.00 59 1005.0
20260506084824 17 97 1.6 6.4 0.00 0.00 0.00 60 1005.2
20260506083319 16 62 1.6 1.6 0.00 0.00 0.00 61 1005.3
20260506081816 16 344 4.8 8.0 0.00 0.00 0.00 62 1005.4
20260506080308 15 239 3.2 3.2 0.00 0.00 0.00 62 1005.5
20260506073305 14 277 1.6 1.6 0.00 0.00 0.00 69 1006.0
20260506071759 13 330 0.0 1.6 0.00 0.00 0.00 74 1006.0
20260506070251 12 247 3.2 8.0 0.00 0.00 0.00 81 1006.0
20260506061734 11 213 0.0 0.0 0.00 0.00 0.00 94 1006.2
20260506060231 11 213 0.0 0.0 0.00 0.00 0.00 94 1006.3
20260506050208 10 212 0.0 0.0 0.00 0.00 0.00 93 1006.4
20260506044703 9 212 0.0 0.0 0.00 0.00 0.00 92 1006.5
20260506043202 9 200 0.0 0.0 0.00 0.00 0.00 92 1006.7
20260506041702 9 200 0.0 0.0 0.00 0.00 0.00 92 1006.8
20260506040156 9 215 0.0 0.0 0.00 0.00 0.00 91 1006.8
20260506034649 9 213 0.0 0.0 0.00 0.00 0.00 91 1006.8
20260506033142 10 213 0.0 0.0 0.00 0.00 0.00 91 1006.9
20260506031635 10 215 0.0 0.0 0.00 0.00 0.00 91 1007.0
20260506030136 10 213 0.0 0.0 0.00 0.00 0.00 91 1007.0
20260506024625 10 213 0.0 0.0 0.00 0.00 0.00 90 1007.0
20260506023118 10 215 0.0 0.0 0.00 0.00 0.00 90 1006.8
20260506021611 10 215 0.0 0.0 0.00 0.00 0.00 89 1006.6
20260506020104 10 215 0.0 0.0 0.00 0.00 0.00 89 1006.5
20260506014551 11 215 0.0 0.0 0.00 0.00 0.00 88 1006.7
20260506013050 11 215 0.0 0.0 0.00 0.00 0.00 88 1006.9
20260506011549 11 215 0.0 1.6 0.00 0.00 0.00 88 1006.7
20260506010043 11 215 3.2 3.2 0.00 0.00 0.00 88 1006.5
20260506004534 11 215 0.0 3.2 0.00 0.00 0.00 87 1006.7
20260506003023 12 215 1.6 3.2 0.00 0.00 0.00 86 1006.8
20260506001513 12 215 0.0 1.6 0.00 0.00 0.00 85 1006.7
20260506000014 12 215 0.0 1.6 0.00 0.00 0.00 84 1006.8
20260505234504 12 215 0.0 8.0 0.00 0.00 0.00 84 1006.9
20260505232957 13 192 1.6 3.2 0.00 0.00 0.00 82 1007.0
20260505231450 13 172 3.2 3.2 0.00 0.00 0.00 81 1007.0
20260505225940 13 185 3.2 6.4 0.00 0.00 0.00 83 1007.2
20260505224429 13 200 6.4 9.7 0.00 0.00 0.00 84 1007.1
20260505222921 14 200 8.0 8.0 0.00 0.00 0.00 84 1006.9
20260505221421 14 230 3.2 8.0 0.00 0.00 0.00 83 1007.0
20260505215910 15 217 1.6 3.2 0.00 0.00 0.00 79 1007.0
20260505214409 15 240 9.7 9.7 0.00 0.00 0.00 76 1007.0
20260505212908 15 222 8.0 9.7 0.00 0.00 0.00 73 1007.2
20260505211408 15 240 9.7 12.9 0.00 0.00 0.00 72 1007.3
20260505205858 15 237 6.4 9.7 0.00 0.00 0.00 72 1007.2
20260505204350 15 215 8.0 9.7 0.00 0.00 0.00 70 1007.2
20260505202843 15 237 9.7 9.7 0.00 0.00 0.00 70 1006.9
20260505201329 15 239 9.7 9.7 0.00 0.00 0.00 70 1006.8
20260505195818 15 224 9.7 9.7 0.00 0.00 0.00 69 1006.3
20260505194314 15 217 8.0 12.9 0.00 0.00 0.00 68 6.0
20260505194310 15 217 8.0 12.9 0.00 0.00 0.00 68 1006.0
20260505192809 15 316 1.6 3.2 0.00 0.00 0.00 67 1005.2
20260505191301 15 319 1.6 3.2 0.00 0.00 0.00 66 1005.5
20260505185751 16 337 0.0 3.2 0.00 0.00 0.00 65 1005.3
20260505184245 16 274 4.8 6.4 0.00 0.00 0.00 64 1005.5
20260505182737 16 268 9.7 11.3 0.00 0.00 0.00 62 1005.4
20260505181231 17 258 12.9 12.9 0.00 0.00 0.00 61 1005.4
20260505175719 17 265 9.7 17.7 0.00 0.00 0.00 58 1005.2
20260505174210 18 258 3.2 9.7 0.00 0.00 0.00 54 1005.0
20260505172703 18 268 3.2 6.4 0.00 0.00 0.00 58 1004.9
20260505171156 18 251 0.0 8.0 0.00 0.00 0.00 59 1005.1
20260505165643 18 292 8.0 8.0 0.00 0.00 0.00 59 1005.1
20260505164143 17 346 8.0 9.7 0.00 0.00 0.00 62 1005.2
20260505162632 17 302 8.0 8.0 0.00 0.00 0.00 67 1005.3
20260505161129 18 109 0.0 1.6 0.00 0.00 0.00 69 1005.3
20260505152609 18 181 8.0 16.1 0.00 0.00 0.00 60 1005.1
20260505151103 20 226 6.4 9.7 0.00 0.00 0.00 56 1004.7
20260505124024 24 243 9.7 9.7 0.00 0.00 0.00 30 1004.0
20260505122517 25 359 6.4 6.4 0.00 0.00 0.00 29 100.4
20260505122514 25 359 6.4 6.4 0.00 0.00 0.00 29 1004.1
20260505121007 25 65 1.6 1.6 0.00 0.00 0.00 28 1003.8
20260505115458 26 75 1.6 8.0 0.00 0.00 0.00 28 1003.9
20260505113954 25 104 3.2 9.7 0.00 0.00 0.00 35 1004.0